Skip Page Navigation
NASA JPL Caltech
NASA Logo - Jet Propulsion Laboratory + View the NASA Portal
+ Center for Near-Earth Object Studies
JPL Home Earth Solar System Stars & Galaxies Technology
JPL Solar System Dynamics
BODIES ORBITS EPHEMERIDES TOOLS PHYSICAL DATA DISCOVERY FAQ SITE MAP
JPL Small-Body Database Browser
Search: [ help ]  
18627 Rogerbonnet (1998 DH33)
Classification: Main-belt Asteroid          SPK-ID: 2018627
Ephemeris | Orbit Diagram | Orbital Elements | Mission Design | Physical Parameters | Discovery Circumstances ]

[ show orbit diagram ]
Orbital Elements at Epoch 2459000.5 (2020-May-31.0) TDB
Reference: JPL 29 (heliocentric ecliptic J2000)
 Element Value Uncertainty (1-sigma)   Units 
e .0738149984269053 3.913e-08  
a 2.368240684452434 8.863e-09 au
q 2.193429002055045 9.2846e-08 au
i 9.331557323487317 3.9227e-06 deg
node 52.60237912956534 2.3482e-05 deg
peri 300.4580515076085 3.3665e-05 deg
M 181.2590519530138 2.4341e-05 deg
tp 2459661.434983344335
(2022-Mar-22.93498334)
9.0277e-05 TDB
period 1331.181224021557
3.64
7.4728e-06
2.046e-08
d
yr
n .270436506693224 1.5181e-09 deg/d
Q 2.543052366849824 9.5172e-09 au
  Orbit Determination Parameters
   # obs. used (total)      1929  
   data-arc span      11186 days (30.63 yr)  
   first obs. used      1989-10-28  
   last obs. used      2020-06-13  
   planetary ephem.      DE431  
   SB-pert. ephem.      SB431-N16  
   condition code      0  
   norm. resid. RMS      .41344  
   source      ORB  
   producer      Otto Matic  
   solution date      2020-Jun-23 18:24:03  

Additional Information
 Earth MOID = 1.2066 au 
 Jupiter MOID = 2.73577 au 
 T_jup = 3.525 
[ show covariance matrix ]

Ephemeris | Orbit Diagram | Orbital Elements | Mission Design | Physical Parameters | Discovery Circumstances ]

Physical Parameter Table
Parameter Symbol Value Units Sigma Reference Notes
absolute magnitude H 13.8   n/a MPO350950  

18627 Rogerbonnet           Discovered 1998 Feb. 27 by M. Tombelli and C. Casacci at Cima Ekar.
Roger-Maurice Bonnet (b. 1937) is a French experimental astrophysicist specializing in stellar physics. From 1983 to 2001 he was Science Director of ESA and he created Horizon 2000. Under his lead, ESA launched the scientific projects, Giotto, Hipparcos, ISO, XMM, SOHO, Cluster, Cassini-Huygens and HST.
NOTE: some special characters may not display properly (any characters within {} are an attempt to place the proper accent above a character)
Reference: MPC batch dated 2017-03-12Last Updated: 2017-04-19

Alternate Designations
 1998 DH33 = 1989 VV1 = 1999 LD20 
Ephemeris | Orbit Diagram | Orbital Elements | Mission Design | Physical Parameters | Discovery Circumstances ]
ABOUT SSD CREDITS/AWARDS PRIVACY/COPYRIGHT GLOSSARY LINKS
FirstGov 2020-Jul-15 03:22 UT
(server date/time)  
NASA Home Page
Site Manager:   Ryan S. Park
Webmaster  Alan B. Chamberlin